period_start,C,m1,H,J0,J1,J2,J3,J4,J5,JA,JB,JC,JD,JJ,JK,JN,#
2014-01-10 00:00:29,0.11,3.33,0.00,23.98,26.05,28.92,6.09,30.83,1024.92,2042.99,2340.35,2497.03,2693.99,349.82,325.45,29.02,0000 0000 0000 0000 000000
2014-01-10 00:01:29,0.10,3.33,0.00,23.96,26.05,28.88,5.83,30.79,1024.93,2042.99,2340.14,2497.01,2693.80,349.96,325.32,29.03,0000 0000 0000 0000 000000
2014-01-10 00:02:29,0.11,3.33,0.00,23.94,26.04,28.86,5.95,30.83,1024.97,2042.98,2340.04,2496.98,2693.39,350.37,325.94,29.03,0000 0000 0000 0000 000000
2014-01-10 00:03:29,0.09,3.33,0.00,23.94,26.02,28.81,6.00,30.83,1025.04,2042.99,2339.98,2496.91,2693.15,350.02,325.63,29.04,0000 0000 0000 0000 000000
2014-01-10 00:04:30,0.12,3.34,0.00,23.96,26.02,28.85,5.92,30.75,1025.14,2042.99,2339.73,2496.51,2693.05,349.47,324.98,29.05,0000 0000 0000 0000 000000
2014-01-10 00:05:30,0.19,3.34,0.00,23.96,26.02,28.80,5.93,30.63,1025.23,2042.99,2339.34,2496.22,2693.00,350.06,325.24,29.05,0000 0000 0000 0000 000000
2014-01-10 00:06:30,0.18,3.34,0.00,23.95,26.02,28.80,6.08,30.63,1025.18,2042.99,2339.12,2496.08,2692.96,349.74,325.41,29.06,0000 0000 0000 0000 000000
2014-01-10 00:07:30,0.10,3.34,0.00,23.95,26.00,28.85,5.98,30.67,1025.10,2042.99,2339.04,2496.03,2692.83,349.98,325.61,29.06,0000 0000 0000 0000 000000
2014-01-10 00:08:31,0.07,3.34,0.00,23.97,26.00,28.81,5.91,30.63,1025.04,2042.99,2339.01,2496.01,2692.50,349.51,325.09,29.07,0000 0000 0000 0000 000000
2014-01-10 00:09:31,0.07,3.34,0.00,23.95,26.00,28.80,6.04,30.67,1025.08,2042.99,2338.81,2495.99,2692.21,350.06,325.67,29.08,0000 0000 0000 0000 000000
2014-01-10 00:10:31,0.11,3.34,0.00,23.96,26.00,28.79,5.86,30.75,1025.14,2042.99,2338.38,2495.97,2692.08,348.74,324.46,29.08,0000 0000 0000 0000 000000
2014-01-10 00:11:31,0.13,3.34,0.00,23.96,25.98,28.84,6.05,30.88,1025.11,2042.99,2338.14,2495.76,2692.03,349.38,324.88,29.09,0000 0000 0000 0000 000000
2014-01-10 00:12:32,0.14,3.34,0.00,23.92,25.97,28.84,6.02,30.79,1025.18,2042.99,2338.05,2495.40,2692.00,350.05,325.75,29.09,0000 0000 0000 0000 000000
2014-01-10 00:13:32,0.13,3.34,0.00,23.95,25.97,28.83,6.10,30.96,1025.11,2042.99,2338.01,2495.16,2691.88,350.41,326.02,29.10,0000 0000 0000 0000 000000
2014-01-10 00:14:32,0.13,3.34,0.00,23.94,25.97,28.84,5.91,30.92,1025.08,2043.02,2337.72,2495.05,2691.56,349.50,325.16,29.10,0000 0000 0000 0000 000000
2014-01-10 00:15:33,0.16,3.34,0.00,23.93,25.97,28.84,6.17,30.79,1025.20,2043.01,2337.34,2495.02,2691.23,349.87,325.88,29.11,0000 0000 0000 0000 000000
2014-01-10 00:16:33,0.15,3.34,0.00,23.91,25.95,28.81,6.03,30.88,1025.27,2043.01,2337.12,2495.00,2691.09,349.60,325.44,29.12,0000 0000 0000 0000 000000
2014-01-10 00:17:33,0.08,3.34,0.00,23.92,25.95,28.79,6.15,30.92,1025.33,2043.01,2337.04,2494.99,2691.03,351.07,326.74,29.12,0000 0000 0000 0000 000000
2014-01-10 00:18:33,0.04,3.34,0.00,23.93,25.95,28.78,5.93,30.50,1025.35,2043.02,2336.98,2494.90,2691.01,349.84,325.31,29.13,0000 0000 0000 0000 000000
2014-01-10 00:19:34,0.05,3.35,0.00,23.92,25.94,28.71,6.12,30.71,1025.31,2043.02,2336.80,2494.68,2690.96,350.25,325.57,29.13,0000 0000 0000 0000 000000
2014-01-10 00:20:34,0.14,3.35,0.00,23.92,25.93,28.72,5.96,30.92,1025.17,2043.00,2336.36,2494.33,2690.61,349.60,325.32,29.14,0000 0000 0000 0000 000000
2014-01-10 00:21:35,0.24,3.35,0.00,23.91,25.92,28.76,5.87,30.83,1025.12,2043.03,2336.13,2494.13,2690.28,348.70,324.89,29.15,0000 0000 0000 0000 000000
2014-01-10 00:22:35,0.21,3.35,0.00,23.90,25.92,28.79,5.96,30.75,1025.17,2043.05,2336.04,2494.05,2690.11,350.11,326.23,29.15,0000 0000 0000 0000 000000
2014-01-10 00:23:35,0.10,3.35,0.00,23.87,25.92,28.79,6.15,30.83,1025.21,2043.12,2335.99,2494.01,2690.04,350.28,326.01,29.16,0000 0000 0000 0000 000000
2014-01-10 00:24:35,0.07,3.35,0.00,23.88,25.92,28.78,6.02,30.71,1025.17,2043.13,2335.78,2494.00,2690.01,349.50,325.26,29.16,0000 0000 0000 0000 000000
2014-01-10 00:25:36,0.10,3.35,0.00,23.89,25.91,28.78,5.83,30.58,1025.19,2043.13,2335.38,2493.95,2689.98,349.33,325.09,29.17,0000 0000 0000 0000 000000
2014-01-10 00:26:36,0.11,3.35,0.00,23.92,25.90,28.73,6.02,30.67,1025.13,2043.14,2335.15,2493.64,2689.84,349.71,325.40,29.17,0000 0000 0000 0000 000000
2014-01-10 00:27:36,0.24,3.35,0.00,23.91,25.90,28.73,6.04,30.88,1025.25,2043.28,2335.05,2493.31,2689.48,350.53,326.21,29.18,0000 0000 0000 0000 000000
2014-01-10 00:28:36,0.26,3.35,0.00,23.90,25.90,28.74,5.83,30.79,1025.35,2043.34,2335.00,2493.13,2689.19,349.62,325.40,29.19,0000 0000 0000 0000 000000
2014-01-10 00:29:36,0.17,3.36,0.00,23.87,25.90,28.75,6.18,31.04,1025.37,2043.33,2334.71,2493.05,2689.07,351.11,326.60,29.19,0000 0000 0000 0000 000000
2014-01-10 00:30:37,0.12,3.36,0.00,23.85,25.88,28.75,6.11,30.96,1025.37,2043.36,2334.31,2493.01,2689.02,350.58,326.09,29.20,0000 0000 0000 0000 000000
2014-01-10 00:31:37,0.14,3.36,0.00,23.86,25.87,28.74,6.11,30.92,1025.39,2043.49,2334.11,2492.99,2688.99,350.67,326.20,29.20,0000 0000 0000 0000 000000
2014-01-10 00:32:37,0.22,3.36,0.00,23.87,25.87,28.71,5.93,30.88,1025.36,2043.69,2334.03,2492.94,2688.90,349.56,325.08,29.21,0000 0000 0000 0000 000000
2014-01-10 00:33:38,0.21,3.36,0.00,23.86,25.87,28.72,5.92,31.00,1025.27,2043.73,2333.94,2492.53,2688.51,349.40,325.02,29.22,0000 0000 0000 0000 000000
2014-01-10 00:34:38,0.27,3.36,0.00,23.84,25.87,28.72,5.85,30.88,1025.36,2043.70,2333.53,2492.20,2688.19,350.70,326.53,29.22,0000 0000 0000 0000 000000
2014-01-10 00:35:38,0.20,3.36,0.00,23.85,25.86,28.72,6.22,31.04,1025.39,2043.71,2333.19,2492.08,2688.06,350.58,326.37,29.23,0000 0000 0000 0000 000000
2014-01-10 00:36:38,0.11,3.36,0.00,23.85,25.85,28.70,6.05,31.00,1025.40,2043.68,2333.07,2492.02,2688.01,350.37,326.01,29.23,0000 0000 0000 0000 000000
2014-01-10 00:37:39,0.05,3.36,0.00,23.85,25.85,28.68,5.87,31.04,1025.40,2043.67,2333.01,2491.99,2687.91,349.69,325.52,29.24,0000 0000 0000 0000 000000
2014-01-10 00:38:39,0.09,3.36,0.00,23.84,25.85,28.67,5.74,31.13,1025.40,2043.74,2332.79,2491.83,2687.60,349.24,324.87,29.25,0000 0000 0000 0000 000000
2014-01-10 00:39:39,0.25,3.37,0.00,23.84,25.85,28.66,6.09,31.29,1025.40,2043.76,2332.34,2491.42,2687.25,350.86,326.55,29.25,0000 0000 0000 0000 000000
2014-01-10 00:40:39,0.28,3.37,0.00,23.86,25.84,28.69,5.99,31.04,1025.40,2043.84,2332.13,2491.17,2687.09,348.94,325.10,29.26,0000 0000 0000 0000 000000
2014-01-10 00:41:40,0.21,3.37,0.00,23.85,25.82,28.68,6.14,31.13,1025.40,2043.92,2332.05,2491.08,2687.03,350.69,326.80,29.26,0000 0000 0000 0000 000000
2014-01-10 00:42:40,0.12,3.37,0.00,23.82,25.82,28.61,6.02,31.17,1025.40,2043.96,2332.01,2491.03,2687.01,350.63,326.60,29.27,0000 0000 0000 0000 000000
2014-01-10 00:43:40,0.06,3.37,0.00,23.81,25.82,28.62,6.14,31.17,1025.41,2043.94,2331.83,2491.01,2687.00,350.64,326.47,29.27,0000 0000 0000 0000 000000
2014-01-10 00:44:40,0.07,3.37,0.00,23.80,25.82,28.64,6.02,30.79,1025.41,2043.95,2331.38,2490.98,2686.92,349.70,325.61,29.28,0000 0000 0000 0000 000000
2014-01-10 00:45:41,0.12,3.37,0.00,23.80,25.81,28.64,5.93,30.83,1025.41,2043.98,2331.14,2490.92,2686.66,351.07,326.83,29.29,0000 0000 0000 0000 000000
2014-01-10 00:46:41,0.15,3.37,0.00,23.78,25.80,28.61,6.06,30.88,1025.41,2043.99,2331.05,2490.61,2686.31,350.10,326.00,29.29,0000 0000 0000 0000 000000
2014-01-10 00:47:41,0.20,3.37,0.00,23.77,25.80,28.62,5.90,30.83,1025.41,2043.98,2330.98,2490.27,2686.12,349.87,325.80,29.30,0000 0000 0000 0000 000000
2014-01-10 00:48:41,0.14,3.37,0.00,23.77,25.80,28.59,6.07,30.75,1025.42,2043.99,2330.95,2490.12,2686.04,350.44,326.34,29.30,0000 0000 0000 0000 000000
2014-01-10 00:49:42,0.09,3.37,0.00,23.77,25.80,28.63,6.00,30.88,1025.42,2043.99,2330.57,2490.04,2686.01,350.02,325.95,29.31,0000 0000 0000 0000 000000
2014-01-10 00:50:42,0.11,3.37,0.00,23.79,25.79,28.59,5.98,30.75,1025.42,2043.99,2330.21,2490.01,2685.96,349.53,325.38,29.32,0000 0000 0000 0000 000000
2014-01-10 00:51:42,0.10,3.38,0.00,23.80,25.78,28.57,5.83,31.08,1025.42,2043.99,2330.08,2489.95,2685.69,349.23,325.18,29.32,0000 0000 0000 0000 000000
2014-01-10 00:52:43,0.10,3.38,0.00,23.79,25.77,28.57,6.10,31.13,1025.42,2043.98,2330.00,2489.74,2685.28,350.55,326.07,29.33,0000 0000 0000 0000 000000
2014-01-10 00:53:43,0.16,3.38,0.00,23.80,25.77,28.57,6.05,31.00,1025.41,2043.99,2329.64,2489.35,2685.10,350.36,326.22,29.33,0000 0000 0000 0000 000000
2014-01-10 00:54:43,0.24,3.38,0.00,23.79,25.77,28.54,6.13,30.83,1025.41,2043.99,2329.27,2489.16,2685.04,350.56,326.42,29.34,0000 0000 0000 0000 000000
2014-01-10 00:55:43,0.16,3.38,0.00,23.77,25.77,28.56,6.09,31.00,1025.41,2043.99,2329.10,2489.06,2685.01,350.63,326.69,29.34,0000 0000 0000 0000 000000
2014-01-10 00:56:44,0.07,3.38,0.00,23.75,25.75,28.58,6.09,31.17,1025.42,2043.99,2329.04,2489.02,2684.98,349.63,325.68,29.35,0000 0000 0000 0000 000000
2014-01-10 00:57:44,0.03,3.38,0.00,23.76,25.75,28.58,6.08,31.00,1025.41,2043.99,2328.98,2489.00,2684.86,350.12,325.95,29.36,0000 0000 0000 0000 000000
2014-01-10 00:58:44,0.05,3.38,0.00,23.75,25.75,28.61,5.96,31.00,1025.41,2043.99,2328.67,2488.94,2684.43,349.91,326.02,29.36,0000 0000 0000 0000 000000
2014-01-10 00:59:45,0.18,3.38,0.00,23.74,25.75,28.56,5.89,30.79,1025.41,2043.99,2328.27,2488.70,2684.17,350.34,326.32,29.37,0000 0000 0000 0000 000000
2014-01-10 01:00:45,0.22,3.38,0.00,23.75,25.74,28.52,5.98,30.88,1025.41,2043.99,2328.10,2488.36,2684.05,350.28,325.84,29.37,0000 0000 0000 0000 000000
2014-01-10 01:01:45,0.16,3.38,0.00,23.77,25.73,28.53,6.20,30.96,1025.41,2043.99,2328.03,2488.14,2684.02,350.42,326.32,29.38,0000 0000 0000 0000 000000
2014-01-10 01:02:45,0.09,3.38,0.00,23.76,25.72,28.53,5.91,30.88,1025.41,2043.99,2327.96,2488.05,2683.99,349.25,325.23,29.39,0000 0000 0000 0000 000000
2014-01-10 01:03:46,0.05,3.38,0.00,23.74,25.72,28.50,5.90,30.71,1025.41,2043.99,2327.71,2488.01,2683.90,349.47,325.46,29.39,0000 0000 0000 0000 000000
2014-01-10 01:04:46,0.10,3.38,0.00,23.75,25.72,28.53,5.95,30.96,1025.41,2043.99,2327.31,2488.00,2683.60,349.50,325.49,29.40,0000 0000 0000 0000 000000
2014-01-10 01:05:46,0.15,3.39,0.00,23.75,25.72,28.55,5.87,30.79,1025.42,2044.01,2327.11,2487.95,2683.25,349.44,325.42,29.40,0000 0000 0000 0000 000000
2014-01-10 01:06:47,0.14,3.39,0.00,23.72,25.70,28.52,5.98,30.96,1025.41,2044.02,2327.04,2487.82,2683.09,349.98,325.75,29.41,0000 0000 0000 0000 000000
2014-01-10 01:07:47,0.11,3.39,0.00,23.72,25.70,28.54,6.08,31.13,1025.41,2044.01,2326.95,2487.47,2683.02,350.88,326.80,29.42,0000 0000 0000 0000 000000
2014-01-10 01:08:47,0.14,3.39,0.00,23.74,25.70,28.55,6.07,30.92,1025.42,2044.01,2326.48,2487.18,2682.96,350.11,326.06,29.42,0000 0000 0000 0000 000000
2014-01-10 01:09:47,0.18,3.39,0.00,23.74,25.70,28.50,6.11,31.08,1025.43,2044.02,2326.21,2487.07,2682.90,351.38,327.24,29.43,0000 0000 0000 0000 000000
2014-01-10 01:10:48,0.12,3.39,0.00,23.73,25.70,28.47,6.06,31.00,1025.41,2044.05,2326.08,2487.02,2682.64,350.85,327.02,29.43,0000 0000 0000 0000 000000
2014-01-10 01:11:48,0.13,3.39,0.00,23.72,25.69,28.46,6.02,31.00,1025.41,2044.06,2326.01,2486.99,2682.28,350.24,326.25,29.44,0000 0000 0000 0000 000000
2014-01-10 01:12:48,0.11,3.39,0.00,23.71,25.68,28.42,6.03,31.29,1025.41,2044.06,2325.84,2486.89,2682.10,349.60,326.04,29.44,0000 0000 0000 0000 000000
2014-01-10 01:13:48,0.09,3.39,0.00,23.73,25.67,28.43,6.12,31.29,1025.41,2044.05,2325.50,2486.61,2682.04,349.61,326.00,29.45,0000 0000 0000 0000 000000
2014-01-10 01:14:49,0.18,3.39,0.00,23.71,25.67,28.44,6.12,31.33,1025.42,2044.04,2325.21,2486.32,2681.99,349.58,325.64,29.46,0000 0000 0000 0000 000000
2014-01-10 01:15:49,0.15,3.39,0.00,23.71,25.67,28.44,6.09,31.38,1025.43,2044.05,2325.07,2486.13,2681.89,350.78,326.71,29.46,0000 0000 0000 0000 000000
2014-01-10 01:16:49,0.11,3.39,0.00,23.71,25.66,28.43,6.03,31.21,1025.42,2044.07,2325.02,2486.05,2681.62,349.44,325.52,29.47,0000 0000 0000 0000 000000
2014-01-10 01:17:49,0.11,3.40,0.00,23.72,25.65,28.43,6.10,31.08,1025.41,2044.08,2324.86,2486.01,2681.30,349.91,325.71,29.47,0000 0000 0000 0000 000000
2014-01-10 01:18:50,0.14,3.40,0.00,23.69,25.65,28.46,5.90,31.17,1025.41,2044.08,2324.39,2485.99,2681.11,350.46,326.49,29.48,0000 0000 0000 0000 000000
2014-01-10 01:19:50,0.12,3.40,0.00,23.67,25.65,28.44,6.03,31.29,1025.41,2044.15,2324.15,2485.84,2681.04,350.54,326.54,29.49,0000 0000 0000 0000 000000
2014-01-10 01:20:50,0.22,3.40,0.00,23.66,25.65,28.43,5.92,31.00,1025.42,2044.16,2324.05,2485.47,2681.01,349.89,325.95,29.49,0000 0000 0000 0000 000000
2014-01-10 01:21:50,0.16,3.40,0.00,23.65,25.65,28.49,6.03,30.92,1025.41,2044.24,2324.00,2485.20,2680.90,349.29,325.40,29.50,0000 0000 0000 0000 000000
2014-01-10 01:22:51,0.17,3.40,0.00,23.65,25.64,28.48,6.06,31.46,1025.41,2044.27,2323.78,2485.08,2680.55,350.52,326.54,29.50,0000 0000 0000 0000 000000
2014-01-10 01:23:51,0.21,3.40,0.00,23.67,25.62,28.51,5.98,31.08,1025.41,2044.36,2323.38,2485.02,2680.30,350.71,326.70,29.51,0000 0000 0000 0000 000000
2014-01-10 01:24:51,0.24,3.40,0.00,23.66,25.62,28.47,5.95,31.08,1025.41,2044.39,2323.15,2484.99,2680.11,350.28,326.30,29.52,0000 0000 0000 0000 000000
2014-01-10 01:25:51,0.13,3.40,0.00,23.66,25.62,28.43,6.07,30.88,1025.41,2044.51,2323.05,2484.95,2680.04,350.65,326.65,29.52,0000 0000 0000 0000 000000
2014-01-10 01:26:51,0.12,3.40,0.00,23.67,25.62,28.40,6.12,31.17,1025.41,2044.60,2322.99,2484.61,2680.00,350.65,326.64,29.53,0000 0000 0000 0000 000000
2014-01-10 01:27:52,0.22,3.41,0.00,23.67,25.61,28.38,5.99,31.08,1025.41,2044.58,2322.58,2484.27,2679.97,349.48,325.31,29.53,0000 0000 0000 0000 000000
2014-01-10 01:28:52,0.25,3.41,0.00,23.66,25.60,28.40,6.08,30.92,1025.41,2044.66,2322.24,2484.11,2679.76,350.19,326.32,29.54,0000 0000 0000 0000 000000
2014-01-10 01:29:52,0.21,3.41,0.00,23.63,25.60,28.43,5.98,30.88,1025.42,2044.73,2322.09,2484.04,2679.37,348.94,325.27,29.54,0000 0000 0000 0000 000000
2014-01-10 01:30:52,0.23,3.41,0.00,23.62,25.60,28.47,6.18,30.83,1025.42,2044.78,2322.03,2484.01,2679.14,351.04,327.05,29.55,0000 0000 0000 0000 000000
2014-01-10 01:31:53,0.09,3.41,0.00,23.60,25.60,28.44,5.96,30.96,1025.41,2044.73,2321.97,2483.97,2679.05,349.91,326.03,29.56,0000 0000 0000 0000 000000
2014-01-10 01:32:53,0.01,3.41,0.00,23.61,25.59,28.44,5.96,30.79,1025.42,2044.80,2321.72,2483.90,2679.01,349.68,325.60,29.56,0000 0000 0000 0000 000000
2014-01-10 01:33:53,0.17,3.41,0.00,23.61,25.59,28.46,5.93,31.04,1025.42,2044.88,2321.32,2483.63,2678.94,349.64,325.76,29.57,0000 0000 0000 0000 000000
2014-01-10 01:34:53,0.25,3.41,0.00,23.61,25.58,28.43,5.96,31.04,1025.43,2044.91,2321.12,2483.29,2678.69,350.08,326.05,29.57,0000 0000 0000 0000 000000
2014-01-10 01:35:54,0.23,3.41,0.00,23.60,25.57,28.41,5.99,30.83,1025.43,2044.94,2321.04,2483.11,2678.32,350.82,326.32,29.58,0000 0000 0000 0000 000000
2014-01-10 01:36:54,0.16,3.42,0.00,23.60,25.57,28.44,5.93,30.96,1025.42,2044.96,2320.98,2483.04,2678.15,349.80,325.93,29.59,0000 0000 0000 0000 000000
2014-01-10 01:37:54,0.08,3.42,0.00,23.60,25.57,28.39,5.77,30.75,1025.42,2044.97,2320.63,2483.01,2678.05,349.36,325.42,29.59,0000 0000 0000 0000 000000
2014-01-10 01:38:54,0.15,3.42,0.00,23.61,25.57,28.34,5.83,30.96,1025.44,2044.98,2320.25,2482.90,2678.01,349.52,325.66,29.60,0000 0000 0000 0000 000000
2014-01-10 01:39:55,0.14,3.42,0.00,23.61,25.55,28.33,6.03,30.88,1025.46,2044.95,2320.09,2482.55,2677.89,350.59,326.92,29.60,0000 0000 0000 0000 000000
2014-01-10 01:40:55,0.15,3.42,0.00,23.62,25.55,28.37,5.99,30.83,1025.43,2044.95,2320.03,2482.24,2677.59,349.60,325.72,29.61,0000 0000 0000 0000 000000
2014-01-10 01:41:55,0.17,3.42,0.00,23.59,25.55,28.37,5.97,30.92,1025.44,2044.98,2319.99,2482.10,2677.28,350.47,326.56,29.61,0000 0000 0000 0000 000000
2014-01-10 01:42:56,0.12,3.42,0.00,23.56,25.55,28.34,6.01,30.96,1025.46,2044.99,2319.72,2482.07,2677.12,349.98,326.16,29.62,0000 0000 0000 0000 000000
2014-01-10 01:43:56,0.11,3.42,0.00,23.54,25.55,28.30,6.02,31.04,1025.51,2044.99,2319.32,2482.03,2677.04,349.66,325.90,29.63,0000 0000 0000 0000 000000
2014-01-10 01:44:56,0.12,3.42,0.00,23.56,25.54,28.33,6.10,31.33,1025.53,2044.99,2319.11,2482.01,2677.01,350.20,326.38,29.63,0000 0000 0000 0000 000000
2014-01-10 01:45:56,0.04,3.42,0.00,23.56,25.53,28.30,6.02,31.29,1025.64,2044.99,2319.04,2481.98,2676.99,349.78,326.02,29.64,0000 0000 0000 0000 000000
2014-01-10 01:46:56,0.02,3.42,0.00,23.55,25.52,28.30,5.93,31.29,1025.60,2044.99,2318.95,2481.72,2676.86,349.77,326.45,29.64,0000 0000 0000 0000 000000
2014-01-10 01:47:57,0.18,3.42,0.00,23.54,25.52,28.28,6.05,31.33,1025.52,2044.99,2318.50,2481.35,2676.45,350.35,326.90,29.65,0000 0000 0000 0000 000000
2014-01-10 01:48:57,0.32,3.42,0.00,23.54,25.52,28.29,6.18,31.00,1025.53,2044.99,2318.20,2481.14,2676.17,350.28,326.47,29.66,0000 0000 0000 0000 000000
2014-01-10 01:49:57,0.16,3.43,0.00,23.52,25.52,28.32,5.96,30.92,1025.59,2044.99,2318.07,2481.05,2676.06,349.44,325.73,29.66,0000 0000 0000 0000 000000
2014-01-10 01:50:57,0.06,3.43,0.00,23.52,25.50,28.35,5.90,31.00,1025.57,2044.98,2318.01,2481.01,2676.02,349.97,326.22,29.67,0000 0000 0000 0000 000000
2014-01-10 01:51:58,0.02,3.43,0.00,23.53,25.50,28.33,5.93,30.88,1025.54,2044.99,2317.83,2480.98,2675.93,348.80,325.10,29.67,0000 0000 0000 0000 000000
2014-01-10 01:52:58,0.08,3.43,0.00,23.53,25.50,28.29,6.01,30.96,1025.57,2044.99,2317.40,2480.91,2675.66,350.61,326.83,29.68,0000 0000 0000 0000 000000
2014-01-10 01:53:58,0.19,3.43,0.00,23.53,25.50,28.25,6.09,31.04,1025.56,2044.99,2317.14,2480.61,2675.36,351.15,327.57,29.68,0000 0000 0000 0000 000000
2014-01-10 01:54:58,0.23,3.43,0.00,23.52,25.50,28.25,5.94,30.96,1025.65,2044.99,2317.05,2480.26,2675.16,349.77,326.31,29.69,0000 0000 0000 0000 000000
2014-01-10 01:55:58,0.16,3.43,0.00,23.52,25.49,28.23,6.04,30.88,1025.65,2044.99,2317.01,2480.09,2675.06,350.56,326.42,29.70,0000 0000 0000 0000 000000
2014-01-10 01:56:59,0.06,3.43,0.00,23.52,25.48,28.27,5.83,30.96,1025.73,2044.99,2316.94,2480.03,2675.01,349.87,326.17,29.70,0000 0000 0000 0000 000000
2014-01-10 01:57:59,0.04,3.43,0.00,23.51,25.47,28.27,6.04,31.04,1025.71,2044.99,2316.58,2480.01,2674.96,350.90,327.10,29.71,0000 0000 0000 0000 000000
2014-01-10 01:58:59,0.12,3.43,0.00,23.51,25.47,28.24,6.11,31.08,1025.66,2045.00,2316.23,2479.98,2674.84,350.60,326.99,29.71,0000 0000 0000 0000 000000
2014-01-10 01:59:59,0.12,3.43,0.00,23.49,25.47,28.24,6.01,30.96,1025.63,2045.01,2316.08,2479.94,2674.44,350.37,326.96,29.72,0000 0000 0000 0000 000000
2014-01-10 02:01:00,0.12,3.43,0.00,23.49,25.46,28.24,5.86,31.13,1025.66,2045.00,2316.01,2479.66,2674.21,349.06,325.70,29.73,0000 0000 0000 0000 000000
2014-01-10 02:02:00,0.16,3.43,0.00,23.49,25.45,28.23,5.90,30.92,1025.70,2045.00,2315.86,2479.29,2674.08,350.76,326.38,29.73,0000 0000 0000 0000 000000
2014-01-10 02:03:00,0.17,3.44,0.00,23.52,25.45,28.22,5.88,31.04,1025.80,2045.01,2315.41,2479.10,2674.00,349.71,326.06,29.74,0000 0000 0000 0000 000000
2014-01-10 02:04:00,0.18,3.44,0.00,23.48,25.45,28.22,6.00,30.96,1025.80,2045.00,2315.15,2479.03,2673.95,350.23,326.58,29.74,0000 0000 0000 0000 000000
2014-01-10 02:05:01,0.07,3.44,0.00,23.50,25.45,28.22,5.96,31.04,1025.79,2045.00,2315.05,2479.00,2673.71,349.00,325.41,29.75,0000 0000 0000 0000 000000
2014-01-10 02:06:01,0.07,3.44,0.00,23.50,25.44,28.20,5.98,30.96,1025.78,2045.00,2315.01,2478.94,2673.34,350.10,326.43,29.76,0000 0000 0000 0000 000000
2014-01-10 02:07:01,0.11,3.44,0.00,23.48,25.43,28.22,6.01,30.96,1025.77,2045.01,2314.90,2478.75,2673.12,350.31,326.63,29.76,0000 0000 0000 0000 000000
2014-01-10 02:08:01,0.14,3.44,0.00,23.46,25.42,28.17,6.07,30.92,1025.68,2045.02,2314.47,2478.36,2673.04,350.48,326.80,29.77,0000 0000 0000 0000 000000
2014-01-10 02:09:01,0.28,3.44,0.00,23.42,25.42,28.20,6.03,31.04,1025.75,2045.02,2314.17,2478.14,2673.01,349.48,325.92,29.77,0000 0000 0000 0000 000000
2014-01-10 02:10:01,0.13,3.44,0.00,23.43,25.42,28.21,6.03,31.21,1025.80,2045.01,2314.05,2478.05,2672.99,350.39,327.03,29.78,0000 0000 0000 0000 000000
2014-01-10 02:11:02,0.03,3.44,0.00,23.46,25.42,28.25,6.04,31.21,1025.71,2045.01,2314.00,2478.01,2672.84,350.40,326.86,29.78,0000 0000 0000 0000 000000
2014-01-10 02:12:02,0.06,3.44,0.00,23.44,25.41,28.23,5.98,31.21,1025.68,2045.01,2313.77,2477.96,2672.47,350.82,326.73,29.79,0000 0000 0000 0000 000000
2014-01-10 02:13:02,0.15,3.44,0.00,23.42,25.40,28.16,6.09,31.04,1025.72,2045.02,2313.31,2477.78,2672.19,350.17,326.56,29.80,0000 0000 0000 0000 000000
2014-01-10 02:14:02,0.24,3.44,0.00,23.43,25.40,28.17,6.08,31.00,1025.78,2045.01,2313.11,2477.39,2672.07,350.66,327.02,29.80,0000 0000 0000 0000 000000
2014-01-10 02:15:02,0.18,3.44,0.00,23.45,25.40,28.11,5.97,31.25,1025.72,2045.03,2313.03,2477.16,2672.02,349.28,325.27,29.81,0000 0000 0000 0000 000000
2014-01-10 02:16:03,0.10,3.45,0.00,23.45,25.40,28.14,5.94,31.21,1025.73,2045.01,2312.95,2477.06,2672.00,349.64,325.78,29.81,0000 0000 0000 0000 000000
2014-01-10 02:17:03,0.04,3.45,0.00,23.45,25.39,28.18,6.04,31.17,1025.79,2045.01,2312.62,2477.01,2671.88,350.14,326.52,29.82,0000 0000 0000 0000 000000
2014-01-10 02:18:03,0.11,3.45,0.00,23.45,25.38,28.18,6.06,31.25,1025.78,2045.05,2312.26,2477.00,2671.44,350.50,326.85,29.83,0000 0000 0000 0000 000000
2014-01-10 02:19:03,0.23,3.45,0.00,23.44,25.37,28.18,5.93,31.29,1025.69,2045.12,2312.09,2476.92,2671.18,349.80,326.19,29.83,0000 0000 0000 0000 000000
2014-01-10 02:20:04,0.19,3.45,0.00,23.38,25.37,28.18,5.92,31.17,1025.52,2045.19,2312.01,2476.63,2671.07,349.89,326.40,29.84,0000 0000 0000 0000 000000
2014-01-10 02:21:04,0.19,3.45,0.00,23.39,25.37,28.19,6.02,31.33,1025.63,2045.21,2311.81,2476.28,2671.01,349.28,325.73,29.84,0000 0000 0000 0000 000000
2014-01-10 02:22:04,0.18,3.45,0.00,23.41,25.37,28.19,5.99,31.33,1025.74,2045.30,2311.40,2476.11,2670.98,349.47,325.61,29.85,0000 0000 0000 0000 000000
2014-01-10 02:23:04,0.22,3.45,0.00,23.42,25.37,28.20,5.99,31.08,1025.77,2045.32,2311.16,2476.04,2670.93,350.16,326.57,29.85,0000 0000 0000 0000 000000
2014-01-10 02:24:05,0.08,3.45,0.00,23.42,25.35,28.24,6.06,31.38,1025.81,2045.44,2311.05,2476.01,2670.59,348.62,325.08,29.86,0000 0000 0000 0000 000000
2014-01-10 02:25:05,0.26,3.45,0.00,23.40,25.35,28.22,6.04,31.13,1025.83,2045.57,2310.99,2475.99,2670.26,350.43,326.75,29.87,0000 0000 0000 0000 000000
2014-01-10 02:26:05,0.22,3.46,0.00,23.38,25.35,28.19,5.92,31.08,1025.83,2045.59,2310.87,2475.96,2670.10,349.75,326.26,29.87,0000 0000 0000 0000 000000
2014-01-10 02:27:05,0.10,3.46,0.00,23.37,25.35,28.17,5.94,31.25,1025.83,2045.65,2310.51,2475.73,2670.04,350.19,326.68,29.88,0000 0000 0000 0000 000000
2014-01-10 02:28:06,0.20,3.46,0.00,23.38,25.35,28.14,5.95,31.13,1025.84,2045.73,2310.24,2475.35,2670.01,350.47,326.74,29.88,0000 0000 0000 0000 000000
2014-01-10 02:29:06,0.29,3.46,0.00,23.36,25.33,28.18,6.10,31.29,1025.84,2045.67,2310.08,2475.15,2669.83,350.42,326.90,29.89,0000 0000 0000 0000 000000
2014-01-10 02:30:06,0.07,3.46,0.00,23.37,25.32,28.18,6.00,31.38,1025.84,2045.73,2310.02,2475.05,2669.42,349.14,325.47,29.90,0000 0000 0000 0000 000000
2014-01-10 02:31:06,0.20,3.46,0.00,23.37,25.32,28.14,6.08,31.42,1025.86,2045.85,2309.86,2475.01,2669.17,349.94,326.44,29.90,0000 0000 0000 0000 000000
2014-01-10 02:32:07,0.20,3.46,0.00,23.37,25.32,28.10,6.03,31.29,1025.85,2045.93,2309.43,2474.99,2669.06,350.08,326.61,29.91,0000 0000 0000 0000 000000
2014-01-10 02:33:07,0.19,3.46,0.00,23.37,25.32,28.10,5.92,31.04,1025.83,2045.95,2309.16,2474.90,2669.02,348.70,325.44,29.91,0000 0000 0000 0000 000000
2014-01-10 02:34:07,0.13,3.46,0.00,23.37,25.32,28.11,6.02,31.17,1025.80,2045.97,2309.05,2474.58,2669.00,349.33,325.86,29.92,0000 0000 0000 0000 000000
2014-01-10 02:35:07,0.15,3.46,0.00,23.34,25.30,28.10,6.17,31.25,1025.68,2045.98,2309.01,2474.25,2668.98,351.03,327.44,29.92,0000 0000 0000 0000 000000
2014-01-10 02:36:07,0.14,3.47,0.00,23.33,25.30,28.10,5.86,31.33,1025.53,2045.98,2308.83,2474.10,2668.79,348.97,325.43,29.93,0000 0000 0000 0000 000000